Regional Weather Roundup
Issued by NWS

Home | Current Version | Previous Version | Text Only | Print | Product List | Glossary On
Versions: 1 2 3 4 5 6 7 8 9 10 11 12 13 14 15 16 17 18 19 20 21 22 23 24 25 26 27 28 29 30 31 32 33 34 35 36 37 38 39 40 41 42 43 44 45 46 47 48 49 50
000
ASCA44 KEWX 231120
RWRMX

LATIN AMERICA AND CARIBBEAN REGIONAL WEATHER ROUNDUP
NATIONAL WEATHER SERVICE AUSTIN/SAN ANTONIO TX
500 AM CST THU NOV 23 2017

NOTE: "FAIR" INDICATED FEW OR NO CLOUDS BELOW 12,000 FEET WITH NO
SIGNIFICANT WEATHER AND/OR OBSTRUCTIONS TO VISIBILITY.

BAJA CALIFORNIA

CITY           SKY/WX    TMP DP  RH WIND       PRES   REMARKS
S.J. DEL CABO    N/A    N/A N/A N/A MISG        N/A
TIJUANA        CLEAR     72  34  25 E7        30.04

NORTHWESTERN MEXICO

CITY           SKY/WX    TMP DP  RH WIND       PRES   REMARKS
DURANGO        CLEAR     27  18  69 CALM      30.35
HERMOSILLO     CLEAR     61  37  41 CALM      29.99S

NORTHEASTERN MEXICO

CITY           SKY/WX    TMP DP  RH WIND       PRES   REMARKS
MONCLOVA         N/A    N/A N/A N/A MISG        N/A
MONTERREY      CLEAR     45  37  76 NW8       30.23R WCI  40
REYNOSA        CLEAR     50  41  71 CALM      30.20
TORREON        CLEAR     48  25  40 CALM      30.25
CD. VICTORIA     N/A    N/A N/A N/A MISG        N/A

WESTERN MEXICO

CITY           SKY/WX    TMP DP  RH WIND       PRES   REMARKS
AGUASCALIENTES CLEAR     41  16  36 NE9       30.31  WCI  35
COLIMA           N/A    N/A N/A N/A MISG        N/A
DEL BAJIO      CLEAR     45  37  76 NE6       30.32  WCI  41
GUADALAJARA    CLEAR     39  28  65 CALM      30.23R
MAZATLAN       PTCLDY    63  61  94 NE5       29.92R
P. VALLARTA    CLEAR     70  68  94 CALM      29.90F
URUAPAN          N/A    N/A N/A N/A MISG        N/A
ZACATECAS      CLEAR     28  18  64 CALM      30.31

CENTRAL MEXICO

CITY           SKY/WX    TMP DP  RH WIND       PRES   REMARKS
CUERNAVACA       N/A    N/A N/A N/A MISG        N/A
MEXICO CITY    CLEAR     39  34  81 E6        30.34S WCI  35
MORELIA        CLEAR     36  34  93 CALM      30.25S
POZA RICA        N/A    N/A N/A N/A MISG        N/A
PUEBLA         CLEAR     36  30  80 NW6       30.31  WCI  31
S. LUIS POTOSI CLEAR     34  30  86 CALM      30.30
TOLUCA         CLEAR     34  32  93 CALM      30.34

SOUTHERN MEXICO

CITY           SKY/WX    TMP DP  RH WIND       PRES   REMARKS
ACAPULCO       MOCLDY    75  70  83 NW6       29.90S
B. DE HUATULCO   N/A    N/A N/A N/A MISG        N/A
P. ESCONDIDO     N/A    N/A N/A N/A MISG        N/A
VERACRUZ         N/A    N/A N/A N/A MISG        N/A

YUCATAN PENINSULA

CITY           SKY/WX    TMP DP  RH WIND       PRES   REMARKS
CAMPECHE         N/A    N/A N/A N/A MISG        N/A
CANCUN         MOCLDY    68  68 100 CALM      29.91R
CHETUMAL       CLEAR     68  68 100 CALM      29.95R
CD. DEL CARMEN   N/A    N/A N/A N/A MISG        N/A
COZUMEL        CLEAR     73  70  88 CALM      29.90R
MERIDA         PTCLDY    68  66  94 SW3       29.91S
MINATITLAN       N/A    N/A N/A N/A MISG        N/A
TAPACHULA      CLEAR     72  68  88 CALM      29.85R
VILLAHERMOSA   PTCLDY    70  70 100 SW6       30.05F

CENTRAL AMERICA

CITY           SKY/WX    TMP DP  RH WIND       PRES   REMARKS
BELIZE CITY    PTCLDY    70  66  88 CALM      29.97

CARIBBEAN

CITY           SKY/WX    TMP DP  RH WIND       PRES   REMARKS
ARUBA          PTCLDY    81  75  83 E9        29.86R
CURACAO        PTCLDY    82  75  78 E13       29.86S
KINGSTON       PTCLDY    79  75  89 N10       29.86R
SAN JUAN       PTCLDY    79  75  89 CALM      29.93R
SANTO DOMINGO  PTCLDY    70  68  94 NE6       29.92R
ST. KITTS      PTCLDY    79  77  94 N10       29.92R
ST. MAARTEN    PTCLDY    79  75  89 E3        29.92S
ST. THOMAS       N/A    N/A N/A N/A MISG      29.92R

$$




USA.gov is the U.S. government's official web portal to all federal, state and local government web resources and services.